Weather in Studenyye Vyselki

Russia / Lipetsk Oblast     52°42′53″N   39°30′57″E
temp.,
°C
wind,
m/s
gust,
m/s
humid.,
%
clouds,
%
prec.,
mm/h
press.,
hPa
HPBL,
m
23 september, thu
thu2300:00+9w2385100 0.1 1013161
03:00+9sw2284100 0.3 101365
06:00+8s2286100 0.0 101397
09:00+9ssw3480100 0.0 1013410
12:00+12ssw3464100 0.1 10131180
15:00+11ssw3464100 0.5 10121024
18:00+10ssw3575100 0.4 1012233
21:00+8ssw358167 0.4 1012174
24 september, fri
fri2400:00+7ssw3586100 0.1 1012190
03:00+8ssw268482 0.1 1011359
06:00+8s3787100 0.1 1010426
09:00+8s5878100 0.2 1009773
12:00+9s6117195 0.1 10081211
15:00+11s7115797 0.1 10061737
18:00+10s71169100 0.0 10051165
21:00+8s61086100 0.8 10051219
25 september, sat
sat2500:00+8sse5991100 0.7 1004561
03:00+8sse4994100 1.1 1003616
06:00+8s2496100 0.3 1003309
09:00+10ssw228498 0.4 1004456
12:00+11sw1179100 0.1 1005533
15:00+13n116735 0.6 1006840
18:00+11nne227850 0.5 100724
21:00+9n118633 0.7 100911
26 september, sun
sun2600:00+8w33906 0.1 100962
03:00+7w35945 0.1 1010117
06:00+6w249517 0.0 101084
09:00+9w238398 0.1 1009308
12:00+8nw2292100 1.3 1009161
15:00+8nnw2490100 1.9 1010198
18:00+9nw3688100 0.3 1011220
21:00+9nnw488991 0.4 1012274
27 september, mon
mon2700:00+8nnw499398 0.1 1014270
03:00+8n4892100 0.2 1015352
06:00+6nnw3697100 0.0 1016202
09:00+9n4686100 0.0 1018526
12:00+10nne5681100 0.2 1019670
15:00+11nne6777100 0.8 10191099
18:00+8n4793100 1.3 1021538
21:00+8nne5894100 1.9 1022650